Regional Weather Roundup
Issued by NWS

Home | Current Version | Previous Version | Text Only | Print | Product List | Glossary Off
Versions: 1 2 3 4 5 6 7 8 9 10 11 12 13 14 15 16 17 18 19 20 21 22 23 24 25 26 27 28 29 30 31 32 33 34 35 36 37 38 39 40 41 42 43 44 45 46 47 48 49 50

000
ASUS43 KDMX 282107
RWRIA

WEATHER ROUNDUP FOR IOWA
NATIONAL WEATHER SERVICE DES MOINES IA
400 PM CDT SAT MAR 28 2015

NOTE: "FAIR" INDICATES FEW OR NO CLOUDS BELOW 12,000 FEET WITH NO
SIGNIFICANT WEATHER AND/OR OBSTRUCTIONS TO VISIBILITY.

* - THESE STATIONS ARE NOT NWS STATIONS...THUS NOT UNDER NWS
QUALITY CONTROL.  THEY ALSO DO NOT REPORT WEATHER SUCH
AS PRECIPITATION OR FOG.

IAZ001>003-012>014-020>022-031>034-043>046-282200-
   NORTHWEST IOWA

CITY           SKY/WX    TMP DP  RH WIND       PRES   REMARKS
CARROLL *      SUNNY     50  23  34 S17G23    30.10F
CHEROKEE *     SUNNY     50  27  40 S15G26    30.06F
DENISON *      SUNNY     50  27  40 S16G31    30.06F
LE MARS *      SUNNY     52  27  37 S14G21    30.04F
ORANGE CITY *  SUNNY     52  25  35 S16       30.03F
SHELDON *      SUNNY     48  28  46 S17G26    30.03F
SIOUX CITY     SUNNY     55  27  34 S17G24    30.05F
SPENCER        MOSUNNY   47  28  47 S18       30.07F
STORM LAKE *   SUNNY     48  27  43 S18G24    30.07F
$$

IAZ055>058-069>071-079>083-090>094-282200-
   SOUTHWEST IOWA

CITY           SKY/WX    TMP DP  RH WIND       PRES   REMARKS
ATLANTIC *     MOSUNNY   50  27  40 SE13G23   30.11F
AUDUBON *      SUNNY     52  25  35 S13G20    30.11F
CLARINDA *     SUNNY     50  28  43 SE10G18   30.13F
COUNCIL BLFS * SUNNY     52  30  43 S16G23    30.08F
CRESTON *      SUNNY     46  25  42 SE13G18   30.13F
HARLAN  *      SUNNY     50  27  40 S16G22    30.12F
LAMONI         SUNNY     48  25  40 S9G18     30.15F
RED OAK *      SUNNY     52  27  37 S9G20     30.11F
SHENANDOAH *   SUNNY     54  30  40 SE13      30.11F
$$

IAZ047>049-059>061-072>074-084-282200-
   CENTRAL IOWA

CITY           SKY/WX    TMP DP  RH WIND       PRES   REMARKS
AMES           SUNNY     48  17  29 SE15      30.15F
ANKENY *       SUNNY     48  16  27 SE9G18    30.16F
CHARITON *     SUNNY     48  19  32 SE14G20   30.17F
DES MOINES     MOSUNNY   49  15  25 SE12G18   30.16F
GRINNELL*      SUNNY     45  14  29 SE14G20   30.19F
KNOXVILLE *    SUNNY     48  16  27 SE14      30.16F
MARSHALLTOWN   SUNNY     45  15  30 S14G21    30.17F
PELLA *        SUNNY     48  21  34 SE12      30.20S
PERRY *          N/A     50  21  32 S17       30.13F
$$

IAZ004>006-015-016-023>025-035-036-282200-
   NORTH CENTRAL IOWA

CITY           SKY/WX    TMP DP  RH WIND       PRES   REMARKS
ALGONA *       SUNNY     46  21  36 S18G26    30.11F
CLARION *      SUNNY     45  25  45 S18G26    30.14F
ESTHERVILLE    SUNNY     46  25  43 S22G30    30.08F
FORT DODGE *   SUNNY     48  19  32 SE14G20   30.12F
MASON CITY     SUNNY     45  21  38 S15G24    30.16F
FOREST CITY *  SUNNY     43  23  45 S16       30.13F
IOWA FALLS *     N/A     46  19  34 SE12      30.17F
$$

IAZ007>011-017>019-026>030-037>042-050>054-066-282200-
   NORTHEAST IOWA

CITY           SKY/WX    TMP DP  RH WIND       PRES   REMARKS
CEDAR RAPIDS   SUNNY     42  12  29 SE8       30.22F
CHARLES CITY * SUNNY     43  18  36 SE13G20   30.18F
CLINTON *      SUNNY     39  12  33 S6        30.30F WCI  35
DECORAH *      SUNNY     37  16  41 SE8       30.20F WCI  31
DUBUQUE        SUNNY     39  11  31 SW12      30.24F WCI  32
MONTICELLO *   SUNNY     41  14  33 S10       30.24F
OELWEIN *      SUNNY     41  18  38 S15       30.21F
WATERLOO       SUNNY     44  14  29 S10       30.19F
$$

IAZ064-065-067-068-078-282200-
   EAST CENTRAL IOWA

CITY           SKY/WX    TMP DP  RH WIND       PRES   REMARKS
DAVENPORT      SUNNY     40  10  29 S5        30.27F
IOWA CITY      SUNNY     43  11  27 SE10G16   30.26F
MT. PLEASANT * SUNNY     45  12  26 E3        30.25S
MUSCATINE *    SUNNY     43  10  26 S12G18    30.26F
QUAD CITIES    SUNNY     41   9  26 E6G20     30.27F
$$

IAZ062-063-075>077-085>089-095>099-282200-
   SOUTHEAST IOWA

CITY           SKY/WX    TMP DP  RH WIND       PRES   REMARKS
BURLINGTON     SUNNY     42  12  29 SE7       30.25F
FAIRFIELD *    SUNNY     43  10  26 VRB8G15   30.23F
FORT MADISON * SUNNY     43  16  33 SE8G16    30.26S
KEOKUK *       SUNNY     43  14  31 VRB6G16   30.24F
OSKALOOSA *      N/A     46  14  27 SE12G17   30.20F
CENTERVILLE *  SUNNY     46  18  31 SE10      30.20S
OTTUMWA        SUNNY     45  13  27 S8G20     30.20F
WASHINGTON *   SUNNY     45  14  29 S10       30.23F
$$

ABBREVIATIONS USED IN REMARKS
   TC - TEMPERATURES IN CELSIUS
  WCI - WIND CHILL INDEX
   HX - HEAT INDEX
  VSB - VISIBILITY
$$



USA.gov is the U.S. government's official web portal to all federal, state and local government web resources and services.